Location: Novokuznetsk
(53.7500°N, 87.1000°E)
Time: 04:40:25
(UTC+06:00)

ISS - Pass Details

Date: 19 July 2018
Orbit: 402 x 408 km, 51.6° (Epoch: 16 July)

Event Time Altitude Azimuth Distance (km) Brightness Sun altitude
Rises 02:28:41 0° 276° (W) 2,330 -0.2 -10.2°
Reaches altitude 10° 02:30:50 10° 269° (W) 1,469 -1.3 -10.0°
Maximum altitude 02:33:58 42° 197° (SSW) 599 -3.4 -9.8°
Drops below altitude 10° 02:37:05 10° 126° (SE) 1,467 -1.0 -9.5°
Sets 02:39:14 0° 119° (ESE) 2,327 0.1 -9.4°
